DW9216 Weather Reports


Display with metric or nautical units.
time (UTC)temp
F
wind
direction
speed
MPH
gust
MPH
rain 1hr
in
rain 24hr
in
rain mn
in
humidity
%
barometer
mb
20260507062950 58 40 0.0 0.0 0.00 0.00 0.00 39 1016.4
20260507061951 58 30 0.0 1.0 0.00 0.00 0.00 38 1016.3
20260507060950 59 27 0.0 1.0 0.00 0.00 0.00 37 1016.2
20260507055950 60 352 0.0 1.0 0.00 0.00 0.00 38 1016.2
20260507054950 59 54 0.0 3.0 0.00 0.00 0.00 37 1016.2
20260507053950 61 33 0.0 0.0 0.00 0.00 0.00 36 1016.1
20260507052950 61 33 0.0 2.0 0.00 0.00 0.00 37 1016.1
20260507051950 61 139 0.0 1.0 0.00 0.00 0.00 36 1016.2
20260507050950 62 29 0.0 2.0 0.00 0.00 0.00 35 1016.1
20260507045950 62 50 0.0 0.0 0.00 0.00 0.00 35 1015.9
20260507044950 63 37 0.0 2.0 0.00 0.00 0.00 34 1015.9
20260507043950 64 39 0.0 1.0 0.00 0.00 0.00 34 1015.8
20260507042950 65 37 0.0 1.0 0.00 0.00 0.00 33 1015.6
20260507041950 66 19 0.0 3.0 0.00 0.00 0.00 32 1015.6
20260507040950 65 25 0.0 1.0 0.00 0.00 0.00 33 1015.4
20260507035950 66 117 0.0 0.0 0.00 0.00 0.00 32 1015.2
20260507034950 67 35 0.0 1.0 0.00 0.00 0.00 31 1015.1
20260507033950 67 13 0.0 0.0 0.00 0.00 0.00 31 1014.9
20260507032950 68 68 0.0 1.0 0.00 0.00 0.00 30 1014.7
20260507031950 70 210 0.0 1.0 0.00 0.00 0.00 29 1014.5
20260507030950 71 156 0.0 5.0 0.00 0.00 0.00 28 1014.3
20260507025950 72 163 0.0 7.0 0.00 0.00 0.00 28 1014.1
20260507024950 73 174 2.0 8.0 0.00 0.00 0.00 27 1013.9
20260507023950 72 226 5.0 7.0 0.00 0.00 0.00 27 1013.8
20260507022950 72 208 0.0 4.0 0.00 0.00 0.00 27 1013.7
20260507021950 73 177 0.0 11.0 0.00 0.00 0.00 27 1013.6
20260507020950 73 188 2.0 8.0 0.00 0.00 0.00 27 1013.5
20260507015950 74 211 0.0 11.0 0.00 0.00 0.00 26 1013.4
20260507014950 75 142 1.0 7.0 0.00 0.00 0.00 25 1013.3
20260507013950 76 158 3.0 10.0 0.00 0.00 0.00 25 1013.2
20260507012950 77 170 0.0 12.0 0.00 0.00 0.00 25 1013.2
20260507011950 77 155 6.0 14.0 0.00 0.00 0.00 25 1013.1
20260507010950 78 212 0.0 12.0 0.00 0.00 0.00 24 1012.9
20260507005950 78 232 5.0 9.0 0.00 0.00 0.00 24 1013.0
20260507004950 78 183 2.0 15.0 0.00 0.00 0.00 24 1012.9
20260507003950 79 210 0.0 13.0 0.00 0.00 0.00 24 1012.9
20260507002950 79 105 2.0 11.0 0.00 0.00 0.00 24 1012.7
20260507001950 79 185 4.0 15.0 0.00 0.00 0.00 24 1012.9
20260507000950 78 153 5.0 15.0 0.00 0.00 0.00 24 1012.7
20260506235950 79 148 5.0 12.0 0.00 0.00 0.00 24 1012.6
20260506234950 79 146 8.0 16.0 0.00 0.00 0.00 24 1012.7
20260506233950 79 176 4.0 15.0 0.00 0.00 0.00 24 1012.7
20260506232950 79 174 7.0 17.0 0.00 0.00 0.00 24 1012.8
20260506231950 78 119 8.0 16.0 0.00 0.00 0.00 24 1012.9
20260506230950 79 170 8.0 15.0 0.00 0.00 0.00 24 1013.0
20260506225950 79 160 12.0 13.0 0.00 0.00 0.00 24 1013.0
20260506224951 79 119 8.0 15.0 0.00 0.00 0.00 24 1013.1
20260506223950 78 159 6.0 15.0 0.00 0.00 0.00 24 1013.2
20260506222951 78 167 12.0 13.0 0.00 0.00 0.00 24 1013.3
20260506221951 78 177 8.0 14.0 0.00 0.00 0.00 24 1013.4
20260506220950 79 236 10.0 15.0 0.00 0.00 0.00 24 1013.5
20260506215950 78 201 1.0 9.0 0.00 0.00 0.00 25 1013.6
20260506214950 78 145 1.0 12.0 0.00 0.00 0.00 25 1013.9
20260506213951 78 134 4.0 11.0 0.00 0.00 0.00 25 1014.0
20260506212950 78 174 4.0 11.0 0.00 0.00 0.00 24 1014.2
20260506211950 77 307 0.0 17.0 0.00 0.00 0.00 25 1014.2
20260506210950 77 156 10.0 16.0 0.00 0.00 0.00 25 1014.3
20260506205950 77 216 8.0 11.0 0.00 0.00 0.00 25 1014.5
20260506204951 76 217 0.0 10.0 0.00 0.00 0.00 25 1014.6
20260506203951 77 219 4.0 14.0 0.00 0.00 0.00 25 1014.7
20260506202951 76 158 4.0 13.0 0.00 0.00 0.00 25 1014.8
20260506201950 76 160 4.0 17.0 0.00 0.00 0.00 25 1014.8
20260506200951 76 77 4.0 17.0 0.00 0.00 0.00 25 1015.0
20260506195951 75 161 9.0 12.0 0.00 0.00 0.00 26 1015.1
20260506194951 75 155 10.0 12.0 0.00 0.00 0.00 26 1015.2
20260506193951 74 149 0.0 12.0 0.00 0.00 0.00 26 1015.3
20260506192951 74 134 5.0 12.0 0.00 0.00 0.00 27 1015.3
20260506191951 74 136 6.0 15.0 0.00 0.00 0.00 27 1015.3
20260506190951 73 91 2.0 9.0 0.00 0.00 0.00 27 1015.5
20260506185951 73 129 2.0 13.0 0.00 0.00 0.00 27 1015.6
20260506184951 73 203 6.0 8.0 0.00 0.00 0.00 27 1015.6
20260506183951 71 210 0.0 10.0 0.00 0.00 0.00 28 1015.8
20260506182951 72 68 2.0 9.0 0.00 0.00 0.00 27 1015.9
20260506181951 72 134 2.0 11.0 0.00 0.00 0.00 28 1016.0
20260506180951 71 122 5.0 9.0 0.00 0.00 0.00 28 1016.1
20260506175951 71 124 7.0 10.0 0.00 0.00 0.00 28 1016.2
20260506174951 71 70 0.0 7.0 0.00 0.00 0.00 28 1016.2
20260506173951 70 183 0.0 12.0 0.00 0.00 0.00 29 1016.3
20260506172951 70 111 4.0 11.0 0.00 0.00 0.00 29 1016.3
20260506171951 69 192 0.0 8.0 0.00 0.00 0.00 29 1016.4
20260506170951 69 109 2.0 6.0 0.00 0.00 0.00 30 1016.3
20260506165951 69 243 1.0 6.0 0.00 0.00 0.00 30 1016.2
20260506164952 68 136 4.0 7.0 0.00 0.00 0.00 31 1016.3
20260506163951 67 201 3.0 9.0 0.00 0.00 0.00 31 1016.2
20260506162951 67 108 3.0 7.0 0.00 0.00 0.00 32 1016.2
20260506161951 67 111 4.0 8.0 0.00 0.00 0.00 33 1016.2
20260506160951 66 58 0.0 6.0 0.00 0.00 0.00 33 1016.2
20260506155951 66 105 0.0 7.0 0.00 0.00 0.00 34 1016.1
20260506154951 65 113 0.0 5.0 0.00 0.00 0.00 34 1016.1
20260506153951 65 142 4.0 6.0 0.00 0.00 0.00 34 1016.1
20260506152951 64 121 0.0 5.0 0.00 0.00 0.00 35 1016.2
20260506151951 64 34 2.0 6.0 0.00 0.00 0.00 35 1016.2
20260506150951 63 163 0.0 5.0 0.00 0.00 0.00 36 1016.2
20260506145951 63 116 2.0 3.0 0.00 0.00 0.00 36 1016.2
20260506144952 62 132 1.0 6.0 0.00 0.00 0.00 37 1016.2
20260506143951 62 350 0.0 2.0 0.00 0.00 0.00 37 1016.0
20260506142951 61 6 1.0 5.0 0.00 0.00 0.00 38 1016.1
20260506141951 60 55 3.0 4.0 0.00 0.00 0.00 38 1016.2
20260506140951 60 53 0.0 2.0 0.00 0.00 0.00 39 1016.2
20260506135951 59 358 0.0 0.0 0.00 0.00 0.00 40 1016.1
20260506134951 57 210 0.0 1.0 0.00 0.00 0.00 42 1016.1
20260506133951 56 8 0.0 3.0 0.00 0.00 0.00 43 1016.1
20260506132951 56 34 0.0 2.0 0.00 0.00 0.00 44 1015.9
20260506131952 54 113 0.0 0.0 0.00 0.00 0.00 46 1015.8
20260506130951 51 146 0.0 2.0 0.00 0.00 0.00 50 1015.5
20260506125951 50 208 0.0 2.0 0.00 0.00 0.00 51 1015.3
20260506124952 50 91 0.0 1.0 0.00 0.00 0.00 52 1015.2
20260506123951 48 163 0.0 0.0 0.00 0.00 0.00 55 1015.1
20260506122951 47 222 0.0 0.0 0.00 0.00 0.00 53 1015.0
20260506121952 48 15 0.0 0.0 0.00 0.00 0.00 53 1015.0
20260506120951 48 13 0.0 1.0 0.00 0.00 0.00 52 1015.0
20260506115952 49 13 0.0 0.0 0.00 0.00 0.00 51 1014.9
20260506114952 50 13 0.0 0.0 0.00 0.00 0.00 50 1014.9
20260506113951 50 31 0.0 1.0 0.00 0.00 0.00 49 1014.8
20260506112952 50 36 0.0 3.0 0.00 0.00 0.00 49 1014.9
20260506111952 50 51 0.0 3.0 0.00 0.00 0.00 49 1014.8
20260506110952 51 43 0.0 0.0 0.00 0.00 0.00 48 1014.8
20260506105952 52 33 1.0 7.0 0.00 0.00 0.00 47 1014.8
20260506104952 51 26 5.0 7.0 0.00 0.00 0.00 48 1014.7
20260506103952 50 12 3.0 4.0 0.00 0.00 0.00 49 1014.6
20260506102952 50 347 0.0 3.0 0.00 0.00 0.00 50 1014.5
20260506101952 50 117 0.0 1.0 0.00 0.00 0.00 48 1014.5
20260506100952 51 104 0.0 0.0 0.00 0.00 0.00 48 1014.3
20260506095952 52 88 0.0 1.0 0.00 0.00 0.00 46 1014.4
20260506093952 53 70 0.0 3.0 0.00 0.00 0.00 46 1014.3
20260506092952 53 68 0.0 2.0 0.00 0.00 0.00 46 1014.2
20260506091952 52 84 0.0 2.0 0.00 0.00 0.00 47 1014.2
20260506090952 51 32 0.0 1.0 0.00 0.00 0.00 48 1014.1
20260506085952 52 242 0.0 2.0 0.00 0.00 0.00 47 1014.0
20260506084953 52 37 3.0 5.0 0.00 0.00 0.00 47 1014.0
20260506083952 50 33 2.0 4.0 0.00 0.00 0.00 51 1014.1
20260506082952 49 41 0.0 0.0 0.00 0.00 0.00 49 1014.0
20260506081952 50 40 0.0 1.0 0.00 0.00 0.00 48 1014.1
20260506080953 50 73 0.0 0.0 0.00 0.00 0.00 49 1013.9
20260506072952 52 31 0.0 1.0 0.00 0.00 0.00 46 1013.9
20260506071952 52 32 0.0 3.0 0.00 0.00 0.00 47 1013.9
20260506070952 52 39 0.0 3.0 0.00 0.00 0.00 46 1013.9